EHI
0 0 0 0 0 0 0 0 0 0 0 0 0 0 0 0 0 1 0 1 6 11 11 9 8 7 7 6 5 4 4 5 6 6 5 4 2 1 0 0 0 0 0 0 0 0 0 0 0
0 0 0 0 0 0 0 0 0 0 0 0 0 0 0 0 1 1 1 2 7 12 12 10 9 9 8 7 6 4 4 4 4 5 4 3 2 1 0 0 0 0 0 0 0 0 0 0 0
0 0 0 0 0 0 0 0 0 0 0 0 0 0 0 0 1 2 1 4 10 14 13 11 12 12 10 9 7 6 4 3 3 4 3 2 1 0 0 0 0 0 0 0 0 0 0 0 0
0 0 0 0 0 0 0 0 0 0 0 0 0 0 0 1 1 2 4 9 14 17 16 15 15 15 13 11 9 8 7 5 4 3 2 1 0 0 0 0 0 0 0 0 0 0 0 0 0
0 0 0 0 0 0 0 0 0 0 0 0 0 0 1 2 2 4 8 13 18 20 20 19 19 17 15 13 12 10 10 8 5 4 3 1 0 0 0 0 0 0 0 0 0 0 0 0 0
0 0 0 0 0 0 0 0 0 0 0 0 0 2 3 4 5 8 12 16 19 22 23 21 20 17 16 15 13 12 10 8 5 3 3 2 1 0 0 0 0 0 0 0 0 0 0 0 0
0 0 0 0 0 0 0 0 0 0 0 0 0 2 4 5 6 10 14 17 20 23 24 22 18 15 14 14 14 12 10 7 5 3 3 3 2 0 0 0 0 0 0 0 0 0 0 0 0
0 0 0 0 0 0 0 0 0 0 0 0 0 2 4 5 8 11 13 16 19 20 21 20 17 14 12 12 12 11 9 7 5 4 3 2 1 0 0 0 0 0 0 0 0 0 0 0 0
0 0 0 0 0 0 0 0 0 0 0 0 0 1 3 5 8 10 11 13 14 15 15 15 14 13 12 11 11 10 8 6 4 3 3 2 1 0 0 0 0 0 0 0 0 0 0 0 0
0 0 0 0 0 0 0 0 0 0 0 0 0 1 3 4 6 7 8 9 10 10 10 10 10 11 12 11 9 8 7 6 4 3 2 1 1 0 0 0 0 0 0 0 0 0 0 0 0
0 0 0 0 0 0 0 0 0 0 0 0 1 2 3 4 4 4 5 6 7 7 7 7 7 8 9 9 8 7 7 6 4 2 2 1 1 0 0 0 0 0 0 0 0 0 0 0 0
0 0 0 0 0 0 0 0 0 0 0 0 1 3 4 4 4 3 3 4 5 6 6 6 5 5 5 5 5 6 6 5 3 1 1 2 1 0 0 0 0 0 0 0 0 0 0 0 0
0 0 0 0 0 0 0 0 0 0 0 0 1 2 3 4 3 2 2 2 3 3 3 3 3 2 2 3 4 4 4 2 1 1 2 2 1 0 0 0 0 0 0 0 0 0 0 0 0
0 0 0 0 0 0 0 0 0 0 0 0 1 1 3 3 2 1 1 0 1 1 1 1 1 0 1 3 3 3 2 0 0 0 1 2 1 0 0 0 0 0 0 0 0 0 0 0 0
0 0 0 0 0 0 0 0 0 0 0 0 0 1 1 1 1 0 0 0 0 0 0 0 0 0 1 2 2 2 1 0 0 0 0 1 1 0 0 0 0 0 0 0 0 0 0 0 0
0 0 0 0 0 0 0 0 0 0 0 0 0 0 0 0 0 0 0 0 0 0 0 0 0 0 0 1 1 1 0 0 0 0 0 0 0 0 0 0 0 0 0 0 0 0 0 0 0
0 0 0 0 0 0 0 0 0 0 0 0 0 0 0 0 0 0 0 0 0 0 0 0 0 0 0 0 0 0 0 0 0 0 0 0 0 0 0 0 0 0 0 0 0 0 0 0 0
0 0 0 0 0 0 0 0 0 0 0 0 0 0 0 0 0 0 0 0 0 0 0 0 0 0 0 0 0 0 0 0 0 0 0 0 0 0 0 0 0 0 0 0 0 0 0 0 0
0 0 0 0 0 0 0 0 0 0 0 0 0 0 0 0 0 0 0 0 0 0 0 0 0 0 0 0 0 0 0 0 0 0 0 0 0 0 0 0 0 0 0 0 0 0 0 0 0
0 0 0 0 0 0 0 0 0 0 0 0 0 0 0 0 0 0 0 0 0 0 0 0 0 0 0 0 0 0 0 0 0 0 0 0 0 0 0 0 0 0 0 0 0 0 0 0 0
0 0 0 0 0 0 0 0 0 0 0 0 0 0 0 0 0 0 0 0 0 0 0 0 0 0 0 0 0 0 0 0 0 0 0 0 0 0 0 0 0 0 0 0 0 0 0 0 0
0 0 0 0 0 0 0 0 0 0 0 0 0 0 0 0 0 0 0 0 0 0 0 0 0 0 0 0 0 0 0 0 0 0 0 0 0 0 0 0 0 0 0 0 0 0 0 0 0
0 0 0 0 0 0 0 0 0 0 0 0 0 0 0 0 0 0 0 0 0 0 0 0 0 0 0 0 0 0 0 0 0 0 0 0 0 0 0 0 0 0 0 0 0 0 0 0 0
0 0 0 0 0 0 0 0 0 0 0 0 0 0 0 0 0 0 0 0 0 0 0 0 0 0 0 0 0 0 0 0 0 0 0 0 0 0 0 0 0 0 0 0 0 0 0 0 0
0 0 0 0 0 0 0 0 0 0 0 0 0 0 0 0 0 0 0 0 0 0 0 0 0 0 0 0 0 0 0 0 0 0 0 0 0 0 0 0 0 0 0 0 0 0 0 0 0
0 0 0 0 0 0 0 0 0 0 0 0 0 0 0 0 0 0 0 0 0 0 0 0 0 0 0 0 0 0 0 0 0 0 0 0 0 0 0 0 0 0 0 0 0 0 0 0 0
0 0 0 0 0 0 0 0 0 0 0 0 0 0 0 0 0 0 0 0 0 0 0 0 0 0 0 0 0 0 0 0 0 0 0 0 0 0 0 0 0 0 0 0 0 0 0 0 0
0 0 0 0 0 0 0 0 0 0 0 0 0 0 0 0 0 0 0 0 0 0 0 0 0 0 0 0 0 0 0 0 0 0 0 0 0 0 0 0 0 0 0 0 0 0 0 0 0
0 0 0 0 0 0 0 0 0 0 0 0 0 0 0 0 0 0 0 0 0 0 0 0 0 0 0 0 0 0 0 0 0 0 0 0 0 0 0 0 0 0 0 0 0 0 0 0 0
0 0 0 0 0 0 0 0 0 0 0 0 0 0 0 0 0 0 0 0 0 0 0 0 0 0 0 0 0 0 0 0 0 0 0 0 0 0 0 0 0 0 0 0 0 0 0 0 0
Wind_Speed
7 4 2 4 5 3 4 3 2 2 2 0 1 3 6 5 4 4 1 3 5 5 3 5 7 8 8 8 8 8 8 8 8 8 8 8 8 8 8 7 7 8 8 8 7 7 7 6 6
2 2 4 4 4 3 4 4 4 3 4 3 2 3 4 2 1 3 2 2 5 4 3 4 8 8 9 8 8 8 8 8 8 8 8 8 8 8 8 7 7 8 8 7 8 7 6 6 6
2 3 4 4 4 6 4 3 4 1 2 2 3 3 3 2 1 1 1 4 5 4 3 4 8 8 8 8 8 8 8 8 8 8 8 7 7 7 8 8 8 8 8 8 7 7 7 6 6
3 4 4 2 5 4 3 2 3 3 2 3 3 3 1 2 0 2 3 5 6 5 4 5 8 8 8 8 8 8 8 8 7 7 8 8 8 8 8 8 8 8 8 8 8 7 7 6 6
4 4 3 1 4 3 2 2 3 2 2 2 3 3 1 2 3 4 5 6 7 5 4 5 8 8 8 8 8 8 8 8 8 8 8 8 8 8 8 8 8 8 8 8 8 8 8 7 6
4 3 3 4 4 2 2 1 2 2 2 2 4 3 1 1 3 4 5 5 5 6 5 5 8 8 8 8 8 8 8 8 8 8 8 8 8 8 8 8 8 8 8 8 8 8 8 8 7
4 4 4 5 3 2 2 1 3 3 2 3 4 5 1 1 2 4 5 5 5 5 5 5 4 6 8 9 9 9 9 9 9 9 9 9 9 9 9 9 9 8 8 8 8 8 9 8 8
4 4 3 4 5 4 1 1 1 3 3 2 3 6 5 4 4 5 5 6 6 5 5 4 4 4 4 5 8 9 9 9 9 9 10 9 9 9 9 9 9 10 9 9 9 9 9 9 9
3 3 4 6 6 4 2 2 1 1 3 1 0 2 3 8 7 6 5 4 4 5 4 4 4 4 4 4 7 7 8 8 8 7 9 8 4 4 5 8 10 10 10 10 10 10 10 9 8
3 3 6 4 4 3 2 2 3 2 2 1 1 1 5 8 8 7 6 5 3 3 3 3 3 3 4 4 4 3 4 4 4 3 4 3 3 4 5 8 10 10 10 10 10 11 10 8 4
3 4 2 1 1 2 2 1 1 4 3 5 6 6 7 7 7 6 5 4 3 3 3 3 3 3 3 3 3 2 2 2 3 3 4 3 3 3 3 3 4 5 7 5 6 6 5 4 4
2 0 0 1 0 2 3 3 1 2 3 2 5 8 8 8 7 6 5 4 3 3 3 2 2 3 3 3 2 2 2 2 2 2 3 3 2 3 2 2 3 3 2 3 3 3 4 4 4
2 1 1 1 3 2 3 2 1 2 2 3 6 7 7 7 5 4 4 4 4 3 3 2 2 3 3 3 2 2 2 2 2 2 2 3 2 2 2 2 2 3 3 3 3 3 4 4 4
1 2 1 2 2 1 3 1 1 2 1 5 6 6 5 5 5 4 4 4 4 3 3 2 2 2 3 3 2 2 2 2 2 2 3 3 2 2 2 2 2 3 3 3 3 3 3 3 3
2 3 4 4 2 1 3 3 1 1 4 5 4 4 3 3 3 4 4 4 4 3 3 3 2 3 3 3 2 2 2 2 2 2 3 3 3 2 2 2 2 3 3 3 2 3 3 3 4
3 4 3 4 4 2 3 2 1 1 5 4 3 3 3 2 2 2 3 3 3 3 3 2 2 3 2 2 2 2 2 2 2 2 2 3 3 3 2 2 2 2 2 2 2 3 3 3 4
5 3 1 3 4 2 2 2 1 1 3 3 2 2 2 1 1 2 2 3 3 3 3 2 2 3 2 2 2 2 2 1 1 1 2 2 3 3 2 2 2 2 2 3 3 3 2 3 4
1 1 1 1 3 3 2 2 3 1 2 3 2 2 2 3 4 2 2 2 2 2 2 2 2 2 2 2 2 2 2 1 1 1 1 2 2 2 2 2 2 3 2 3 3 2 2 2 3
4 3 1 2 2 2 1 3 5 2 2 3 3 3 3 4 2 1 2 2 2 2 2 2 2 1 2 1 1 0 0 1 1 1 1 2 1 2 2 2 2 2 2 2 3 2 3 3 3
3 3 1 2 3 2 2 4 5 2 3 4 5 5 4 3 1 1 1 2 2 2 2 2 2 2 2 2 1 1 1 0 0 1 1 1 1 1 1 1 1 2 2 3 3 2 2 2 3
4 2 1 0 2 3 2 6 3 2 1 1 2 3 3 4 4 3 3 3 2 3 3 3 2 2 2 2 1 1 1 1 1 1 1 1 1 1 1 1 1 1 1 1 2 2 2 1 2
1 1 1 1 2 3 3 3 6 3 3 2 2 2 3 3 3 3 3 3 3 4 2 2 2 2 2 3 2 2 2 2 2 1 1 1 1 1 0 0 0 0 0 1 1 1 0 0 1
1 1 2 2 2 2 2 1 8 3 3 3 3 2 2 2 3 3 3 3 3 2 2 2 1 2 2 3 3 3 2 2 2 1 2 2 1 1 1 1 1 1 1 1 1 1 0 0 1
1 3 4 4 4 1 1 2 7 4 4 2 2 2 1 1 1 1 0 1 0 0 0 1 1 2 2 2 3 4 4 3 3 3 2 2 1 2 2 1 1 1 1 1 1 1 1 1 1
4 5 5 5 4 4 1 2 9 5 4 3 3 3 1 1 2 1 1 0 0 0 0 0 1 2 1 2 3 4 4 4 4 4 3 3 2 2 2 2 2 2 2 2 1 1 1 1 1
1 3 5 3 4 4 2 5 7 3 3 2 2 2 1 1 1 1 1 1 0 1 1 0 1 2 1 1 3 3 3 3 3 4 3 3 3 3 3 2 2 3 2 2 2 1 2 1 2
2 2 2 5 1 2 5 7 8 1 1 1 1 2 1 1 1 0 1 0 0 1 1 1 1 1 2 2 2 2 2 3 3 3 3 3 3 3 3 3 3 3 3 2 2 2 2 2 2
2 4 3 3 2 3 6 5 5 3 3 2 2 2 2 1 0 0 1 1 1 1 1 1 1 1 2 2 1 1 2 2 3 3 4 3 3 3 3 3 3 3 3 3 3 3 3 3 3
2 2 3 3 2 3 4 8 5 5 4 5 4 3 3 2 1 1 0 1 1 1 1 1 1 1 2 2 1 2 2 2 2 3 3 3 3 3 3 3 3 3 3 3 3 3 3 3 3
2 3 5 3 3 3 3 9 3 3 4 4 4 3 2 2 1 1 0 1 1 2 2 2 2 2 2 2 1 2 2 2 2 3 3 3 3 3 4 3 3 4 4 4 4 5 4 4 5
Wind_Direction
338 355 52 57 61 65 222 225 198 165 173 183 108 120 138 143 158 172 117 106 117 128 130 119 115 112 105 98 92 87 83 78 74 72 68 64 62 58 54 53 50 47 44 40 37 34 31 30 33
339 7 53 65 114 192 245 217 191 187 173 139 69 81 91 96 68 96 103 104 117 121 117 118 107 107 104 100 95 88 83 78 72 68 64 62 59 55 52 49 47 44 41 37 35 31 27 26 26
356 44 83 88 156 191 211 201 189 146 150 121 88 66 108 123 99 118 133 128 110 100 96 111 104 101 102 100 95 89 83 77 71 66 62 60 56 53 50 47 45 42 38 34 30 28 26 24 22
67 51 58 106 208 215 212 196 163 128 79 68 106 91 60 32 6 132 120 122 109 93 91 108 103 101 97 96 94 89 83 76 71 67 63 60 57 54 50 46 43 39 36 31 27 24 22 18 14
65 86 95 198 229 249 252 210 167 126 111 82 109 116 67 4 63 99 109 117 115 101 89 102 102 100 95 91 90 86 80 74 71 67 63 59 57 54 50 46 42 37 33 28 25 22 19 16 10
71 83 133 207 218 263 252 207 149 109 120 123 119 119 151 69 85 99 106 107 109 107 93 90 93 94 91 86 80 79 76 70 66 63 59 55 52 49 45 40 37 33 29 26 23 20 16 13 10
118 124 176 186 181 223 223 143 144 140 148 180 151 125 158 151 108 110 103 98 95 92 89 82 82 81 80 78 74 69 70 67 62 60 58 54 50 47 45 39 34 29 24 21 19 17 16 15 14
131 117 144 183 176 210 178 86 129 144 163 150 143 148 185 187 133 108 98 91 86 77 77 77 73 75 77 72 70 67 65 64 60 57 55 53 48 44 42 36 32 30 26 21 18 16 16 16 14
104 97 189 202 187 197 162 101 26 67 116 87 168 183 180 136 128 116 105 88 81 72 59 70 75 73 75 80 69 64 60 58 58 53 52 50 39 36 37 31 32 30 27 22 21 19 18 16 10
107 162 217 210 196 181 173 150 162 118 108 135 68 55 115 131 136 133 134 133 121 100 77 62 72 79 77 78 69 57 56 52 50 49 47 44 39 34 40 30 31 29 26 22 21 20 19 16 3
136 187 221 236 212 159 146 145 170 140 195 204 188 167 145 143 143 144 147 146 143 128 98 71 68 80 83 81 77 59 52 46 43 44 44 44 42 33 33 27 20 17 20 16 11 14 11 5 359
126 173 221 258 122 138 150 141 141 199 232 219 170 155 151 153 156 160 159 152 138 126 114 94 75 85 82 80 79 73 64 51 42 36 42 51 44 33 23 23 10 13 8 6 7 3 357 357 356
113 116 11 43 84 97 90 90 133 286 300 99 117 130 145 150 149 150 149 143 139 138 133 117 100 91 90 80 70 71 61 57 42 35 36 53 56 37 26 19 14 8 4 5 359 359 356 355 354
119 86 60 27 51 44 100 6 45 286 106 107 125 141 148 149 142 136 146 154 158 153 149 135 119 105 105 96 85 74 65 59 48 37 32 45 55 46 35 23 15 6 0 356 351 350 348 345 348
85 72 35 13 27 34 87 12 271 235 119 123 141 147 144 140 140 160 170 165 164 158 147 142 133 109 105 99 90 81 67 67 56 38 31 42 47 47 44 30 18 2 354 352 352 355 355 2 1
54 61 40 341 13 12 108 229 321 109 126 144 164 163 156 150 167 182 174 162 152 144 140 141 125 112 107 103 92 81 71 68 60 45 29 36 42 49 48 37 15 359 357 359 3 7 3 4 359
40 77 35 331 2 25 101 217 308 92 139 174 188 184 174 173 218 208 181 170 158 155 149 141 125 125 119 109 98 85 75 64 52 48 39 25 36 45 54 38 6 2 11 9 6 12 9 358 352
166 123 94 298 340 50 66 275 283 224 169 212 219 215 203 214 234 218 184 171 154 147 144 143 130 128 114 99 84 68 53 40 37 30 25 22 28 46 54 47 15 14 19 12 8 4 8 0 341
136 117 79 315 330 54 25 297 289 278 213 230 235 229 220 233 250 200 174 156 140 145 156 161 154 161 125 106 118 107 319 321 5 3 6 11 13 49 62 46 20 20 24 6 358 2 9 5 353
86 91 58 347 12 50 3 303 286 260 227 219 222 229 222 221 233 212 178 171 180 190 191 187 196 187 162 153 158 155 153 251 259 322 353 356 1 13 47 69 35 18 17 9 7 14 9 1 14
40 113 159 236 353 33 1 325 314 306 292 255 238 230 226 211 212 212 210 210 208 215 208 209 210 202 184 164 125 102 57 3 342 325 311 319 325 345 26 34 36 17 27 351 346 6 28 354 354
41 329 130 72 59 346 39 303 298 308 310 286 267 246 232 225 215 209 209 217 222 230 223 221 211 210 199 171 168 178 196 228 242 243 261 295 303 279 256 220 248 336 349 322 325 17 10 59 333
166 20 62 56 93 18 19 151 286 319 287 278 272 255 240 226 215 217 216 219 223 215 213 221 226 236 218 189 186 193 219 227 247 257 274 281 281 277 259 234 226 249 260 277 303 330 341 173 223
147 53 48 46 63 347 260 174 277 254 239 270 271 255 231 202 178 196 205 177 188 137 212 235 247 264 243 206 197 203 217 231 249 261 264 273 272 270 259 242 231 239 244 254 260 264 263 241 231
55 72 32 7 7 261 277 214 252 260 260 240 230 228 216 154 130 124 122 147 62 359 299 264 255 274 262 216 214 216 217 220 234 246 248 258 265 260 254 238 234 234 237 241 238 236 243 234 230
54 113 144 192 233 283 312 245 258 275 289 261 222 199 166 152 146 157 185 198 260 310 319 301 271 280 290 249 239 230 222 218 234 239 239 245 244 250 245 234 235 238 238 239 227 230 236 229 235
99 98 148 128 152 289 282 286 301 295 336 69 118 131 171 188 173 120 33 36 301 314 285 265 273 297 305 282 256 245 236 229 243 251 243 247 246 250 244 234 236 241 236 231 221 227 234 226 232
100 141 96 114 147 280 297 280 258 251 231 218 192 188 208 199 151 27 29 4 340 296 285 321 286 281 295 296 270 265 253 241 243 244 246 249 251 248 246 242 239 241 238 231 221 230 231 223 233
110 102 105 108 151 170 277 276 234 218 210 207 218 217 210 203 206 211 327 345 346 348 357 356 340 325 313 311 314 301 289 277 260 250 253 252 251 245 241 240 239 239 239 230 220 229 227 229 240
188 177 152 155 222 187 220 270 289 236 228 211 218 227 223 207 200 195 193 17 6 350 337 327 318 307 298 303 307 293 291 294 281 274 271 261 256 251 245 242 240 242 240 230 222 231 229 227 235